Weather History for Windsor Locks, CT

Change the Weather History Date:

Wednesday, November 6, 2013

  Actual Average Record
Temperature  
Mean Temperature 50 °F 46 °F  
Max Temperature 62 °F 55 °F 72 °F (1959)
Min Temperature 37 °F 36 °F 20 °F (2012)
Degree Days  
Heating Degree Days 15 19  
Month to date heating degree days 112 112  
Since 1 July heating degree days 595 641  
Cooling Degree Days 0 0  
Month to date cooling degree days 0 0  
Year to date cooling degree days 894 756  
Moisture  
Dew Point 41 °F    
Average Humidity 69    
Maximum Humidity 92    
Minimum Humidity 46    
Precipitation  
Precipitation 0.00 in 0.13 in 1.88 in (1907)
Month to date precipitation 0.15 0.76  
Year to date precipitation 43.92 39.28  
Snow  
Snow 0.00 in 0.00 in 4.10 in (1953)
Month to date snowfall 0.0 0.2  
Since 1 July snowfall T 0.2  
Since 1 September snowfall T 0.2  
Snow Depth 0.00 in    
Sea Level Pressure  
Sea Level Pressure 30.30 in    
Wind  
Wind Speed 8 mph (SSW)    
Max Wind Speed 18 mph    
Max Gust Speed 22 mph    
Visibility 10 miles    
Events      
T = Trace of Precipitation, MM = Missing Value Source: NWS Daily Summary

Daily Weather History Graph

Daily Weather History Graph

Search for Another Location

Airport:

Trip Planner

Search our weather history database for the weather conditions in past years. The results will help you decide how hot, cold, wet, or windy it might be!

Date:

Astronomy

Nov. 06, 2013 Rise Set
Actual Time 6:29 AM EST 4:38 PM EST
Civil Twilight 6:00 AM EST 5:07 PM EST
Nautical Twilight 5:27 AM EST 5:41 PM EST
Astronomical Twilight 4:54 AM EST 6:13 PM EST
Moon 9:43 AM EST (11/6) 7:38 PM EST (11/6)
Length of Visible Light 11h 07m
Length of Day
10h 08m
Waxing Crescent, 13% of the Moon is Illuminated
Nov 6
Waxing Crescent
Nov 10
First Quarter
Nov 17
Full
Nov 25
Last Quarter
Dec 2
New

Hourly Weather History & Observations

Time (EST) Temp. Windchill Dew Point Humidity Pressure Visibility Wind Dir Wind Speed Gust Speed Precip Events Conditions
12:51 AM 43.0 °F 41.3 °F 36.0 °F 76% 30.48 in 10.0 mi South 3.5 mph - N/A   Overcast
1:51 AM 41.0 °F 38.0 °F 36.0 °F 82% 30.48 in 10.0 mi South 4.6 mph - N/A   Overcast
2:51 AM 39.0 °F - 35.1 °F 86% 30.46 in 10.0 mi Calm Calm - N/A   Overcast
3:51 AM 37.0 °F - 35.1 °F 93% 30.45 in 10.0 mi Calm Calm - N/A   Mostly Cloudy
3:59 AM 37.4 °F - 35.6 °F 93% 30.45 in 10.0 mi Calm Calm - N/A   Mostly Cloudy
4:51 AM 39.9 °F - 36.0 °F 86% 30.45 in 10.0 mi Calm Calm - N/A   Mostly Cloudy
5:51 AM 39.9 °F - 36.0 °F 86% 30.44 in 10.0 mi Calm Calm - N/A   Mostly Cloudy
6:51 AM 41.0 °F 39.0 °F 37.0 °F 86% 30.42 in 10.0 mi SW 3.5 mph - N/A   Mostly Cloudy
7:51 AM 43.0 °F 39.5 °F 37.9 °F 82% 30.41 in 10.0 mi SW 5.8 mph - N/A   Mostly Cloudy
8:51 AM 46.9 °F - 39.9 °F 77% 30.40 in 10.0 mi South 5.8 mph - N/A   Mostly Cloudy
9:51 AM 55.0 °F - 43.0 °F 64% 30.36 in 10.0 mi South 8.1 mph 17.3 mph N/A   Mostly Cloudy
10:51 AM 59.0 °F - 42.1 °F 53% 30.34 in 10.0 mi SSW 13.8 mph - N/A   Mostly Cloudy
11:51 AM 59.0 °F - 41.0 °F 51% 30.30 in 10.0 mi South 9.2 mph - N/A   Mostly Cloudy
12:51 PM 60.1 °F - 41.0 °F 49% 30.27 in 10.0 mi South 17.3 mph - N/A   Mostly Cloudy
1:51 PM 62.1 °F - 41.0 °F 46% 30.24 in 10.0 mi SSW 15.0 mph 20.7 mph N/A   Scattered Clouds
2:51 PM 60.1 °F - 42.1 °F 51% 30.22 in 10.0 mi SSW 10.4 mph - N/A   Mostly Cloudy
3:51 PM 59.0 °F - 41.0 °F 51% 30.22 in 10.0 mi SSW 12.7 mph - N/A   Scattered Clouds
4:51 PM 57.9 °F - 41.0 °F 53% 30.20 in 10.0 mi South 8.1 mph - N/A   Overcast
5:51 PM 57.0 °F - 43.0 °F 59% 30.19 in 10.0 mi South 11.5 mph - N/A   Overcast
6:51 PM 55.9 °F - 45.0 °F 67% 30.17 in 10.0 mi South 11.5 mph - N/A   Mostly Cloudy
7:51 PM 55.0 °F - 46.9 °F 74% 30.15 in 10.0 mi South 11.5 mph - N/A   Mostly Cloudy
8:51 PM 54.0 °F - 48.0 °F 80% 30.13 in 10.0 mi South 6.9 mph - N/A   Mostly Cloudy
9:51 PM 53.1 °F - 48.0 °F 83% 30.11 in 8.0 mi South 9.2 mph - N/A   Mostly Cloudy
10:51 PM 53.1 °F - 48.9 °F 86% 30.07 in 8.0 mi SSW 8.1 mph - N/A   Overcast
11:51 PM 52.0 °F - 48.9 °F 89% 30.06 in 10.0 mi South 6.9 mph - N/A   Scattered Clouds